[[{"header":{"parameterUnit":"m.s-1","parameterCategory":2,"la1":30.2991,"la2":30.254,"lo1":-89.0895,"lo2":-89.0444,"dy":0.0017,"dx":0.0017,"nx":28,"ny":28,"refTime":"2024-08-18T21:00:00:Z","depth":"0","parameterNumber":2,"parameterNumberName":"U-component_of_CURRENTS"},"data":[0,0,0,0,0,0,0,0,0,0,0,0,0,0,0,0,0,0,0,0,0,0,0,0,0,0,0,0,0,0,0,0,0,0,0,0,0,0,0,0,0,0,0,0,0,0,0,0,0,0,0,0,0,0,0,0,0,0,0.3951,0.3951,0,0.3932,0.3931,0.3931,0.3899,0.3898,0.3897,0.3897,0.3874,0.3874,0.3874,0,0,0,0,0,0,0,0,0,0,0,0,0,0.3938,0.3939,0.3951,0.3951,0.3951,0.3932,0.3931,0.3931,0.3899,0.3898,0.3897,0.3897,0.3874,0.3874,0.3874,0,0,0,0,0,0,0,0,0,0,0,0,0,0.3934,0.3939,0.3951,0.3933,0.3931,0.3932,0.3931,0.3931,0.3899,0.3898,0.3897,0.3896,0.3874,0.3874,0.3874,0.3891,0,0,0.3873,0.3873,0,0,0,0,0,0,0,0,0.3934,0.3934,0.3936,0.3934,0.3932,0.3917,0.3918,0.3917,0.3899,0.3911,0.3897,0.3896,0.3889,0.3887,0.3885,0.3889,0.3888,0.3873,0.3873,0.3873,0.3873,0,0,0,0,0,0,0,0.3934,0.3935,0.3943,0.3935,0.3933,0.3917,0.3916,0.3918,0.3905,0.391,0.3907,0.3906,0.3887,0.3886,0.3885,0.3888,0.3873,0.3873,0.3873,0.3873,0.3966,0.3968,0,0,0,0,0,0,0.394,0.3935,0.3944,0.3943,0.3931,0.3918,0.3917,0.3922,0.3905,0.3901,0.3906,0.3904,0.3886,0.3885,0.3884,0.3956,0.3873,0.3873,0.3873,0.3963,0.3966,0.3969,0,0,0,0,0,0,0.394,0.3941,0.3945,0.3938,0.3937,0.392,0.3926,0.3922,0.3924,0.3902,0.3898,0.3912,0.3885,0.3884,0.3907,0.3953,0.3873,0.3873,0.396,0.3964,0.3968,0.4067,0,0,0,0,0,0,0.3939,0.3941,0.3954,0.3939,0.3938,0.3947,0.3927,0.3923,0.3924,0.3921,0.3906,0.3902,0.3885,0.3907,0.3907,0.3951,0.3873,0.3957,0.3962,0.3967,0.4061,0.4074,0.4085,0,0,0,0,0,0.3939,0.3944,0.3955,0.3957,0.3955,0.3948,0.3946,0.393,0.3925,0.3928,0.3933,0.3903,0.3937,0.3909,0.3908,0.3953,0.3955,0.3961,0.3966,0.4055,0.4071,0.4085,0,0,0,0,0,0,0.3934,0.3942,0.3953,0.3959,0.3961,0.3942,0.3939,0.3939,0.3945,0.3944,0.3929,0.3927,0.3967,0.3949,0.3919,0.3997,0.3944,0.395,0.4012,0.4027,0.4039,0.4038,0.3873,0,0,0,0,0,0.3946,0.3956,0.3961,0.3966,0.3968,0.3963,0.3961,0.3955,0.3954,0.3954,0.3949,0.3958,0.3991,0.3998,0.4007,0.4044,0.4059,0.4076,0.4088,0.4098,0.4099,0.4207,0.423,0.3988,0.3988,0.3988,0,0,0.3941,0.395,0.3954,0.3967,0.3964,0.3982,0.3958,0.3955,0.3983,0.3953,0.3983,0.3995,0.4011,0.4058,0.4075,0.4047,0.4172,0.4106,0.4114,0.4109,0.4216,0.4239,0.426,0.3992,0.3991,0.399,0,0,0.3938,0.395,0.3964,0.3977,0.3986,0.3989,0.3995,0.3991,0.4001,0.4041,0.4041,0.4083,0.4106,0.4136,0.4158,0.4244,0.4235,0.4247,0.4307,0.4413,0.4434,0.4453,0.4487,0.4508,0.4253,0.4254,0.4254,0,0.3944,0.3962,0.3964,0.3988,0.4001,0.3999,0.4022,0.4041,0.405,0.4084,0.4062,0.4163,0.4153,0.4258,0.4276,0.4272,0.4308,0.4249,0.443,0.4449,0.4467,0.4497,0.4519,0.4259,0.4258,0.4258,0.4257,0,0.3952,0.3981,0.3983,0.4026,0.4042,0.4052,0.4084,0.4111,0.4132,0.4166,0.4261,0.4277,0.434,0.4353,0.4333,0.4459,0.4435,0.4436,0.4393,0.4497,0.4522,0.4543,0.4267,0.4265,0.4263,0.4262,0,0,0.3938,0.3985,0.399,0.4027,0.4064,0.4078,0.4139,0.4203,0.4268,0.431,0.441,0.4466,0.4484,0.4508,0.4511,0.4584,0.4711,0.4555,0.4558,0.4586,0.4911,0.4763,0.477,0.476,0.4764,0.4768,0.4873,0,0.3952,0.4,0.4021,0.4081,0.4112,0.4149,0.4211,0.4278,0.4337,0.4431,0.4503,0.4589,0.4546,0.4587,0.4662,0.4708,0.4774,0.468,0.4806,0.4809,0.4664,0.4793,0.4525,0.4586,0.4893,0.4897,0.4899,0,0.396,0.3996,0.4047,0.4132,0.4149,0.4196,0.4304,0.4358,0.4495,0.4548,0.4661,0.4711,0.4827,0.4773,0.4931,0.4879,0.4893,0.4919,0.4925,0.4764,0.47,0.4536,0.4612,0.4524,0.4931,0.4928,0.4926,0,0.3944,0.4019,0.4061,0.4086,0.4179,0.423,0.4285,0.4404,0.4476,0.4632,0.4717,0.4859,0.4947,0.5026,0.5049,0.5017,0.5206,0.5176,0.5057,0.5044,0.4825,0.4785,0.4825,0.5291,0.5291,0.5291,0.529,0,0.395,0.3992,0.4066,0.4093,0.4168,0.4238,0.4341,0.4416,0.4563,0.4662,0.4777,0.4884,0.5021,0.5127,0.5127,0.5152,0.528,0.5085,0.5084,0.4846,0.4809,0.4725,0.4687,0.5295,0.5294,0.5293,0.5292,0,0.3936,0.3973,0.4029,0.4126,0.4159,0.4215,0.435,0.4438,0.4572,0.471,0.4768,0.496,0.5079,0.517,0.5298,0.5243,0.5124,0.5244,0.4912,0.4868,0.4628,0.4604,0.447,0.435,0.5139,0.5136,0.5134,0,0.3926,0.3957,0.4034,0.4065,0.4112,0.4207,0.4278,0.4417,0.4504,0.4728,0.4793,0.4976,0.5037,0.5171,0.511,0.5104,0.5023,0.4869,0.475,0.4595,0.4573,0.4429,0.4329,0.4498,0.4491,0.4485,0.448,0,0.3922,0.3947,0.3994,0.405,0.4114,0.4186,0.4294,0.4351,0.4512,0.4613,0.4739,0.4812,0.4907,0.4782,0.4785,0.475,0.4616,0.4742,0.4704,0.4172,0.39,0.3787,0.4417,0.4427,0.4432,0.4436,0.4439,0.4441,0.3911,0.3932,0.3984,0.4024,0.4081,0.4125,0.411,0.4224,0.4295,0.4321,0.4527,0.4483,0.4498,0.4435,0.4386,0.4165,0.4216,0.4034,0.4049,0.3942,0.3722,0.4193,0.4127,0.413,0.4133,0.4136,0.4138,0,0.3869,0.3902,0.3956,0.3956,0.3942,0.4021,0.4074,0.4,0.3952,0.4023,0.4032,0.3969,0.3832,0.3833,0.3679,0.352,0.3363,0.345,0.3217,0.3181,0.371,0.3578,0.3241,0.3241,0.3241,0.3241,0.3241,0.3241,0.3857,0.3858,0.3871,0.3796,0.3786,0.3685,0.3653,0.3567,0.3545,0.338,0.3278,0.3298,0.3465,0.3391,0.3207,0.3122,0.2951,0.2734,0.2848,0.3255,0.3311,0.3365,0.3235,0.2831,0.2831,0.2133,0.2128,0.2124]},{"header":{"parameterUnit":"m.s-1","parameterCategory":2,"la1":30.2991,"la2":30.254,"lo1":-89.0895,"lo2":-89.0444,"dy":0.0017,"dx":0.0017,"nx":28,"ny":28,"refTime":"2024-08-18T21:00:00:Z","depth":"0","parameterNumber":3,"parameterNumberName":"V-component_of_CURRENTS"},"data":[0,0,0,0,0,0,0,0,0,0,0,0,0,0,0,0,0,0,0,0,0,0,0,0,0,0,0,0,0,0,0,0,0,0,0,0,0,0,0,0,0,0,0,0,0,0,0,0,0,0,0,0,0,0,0,0,0,0,0.0319,0.0319,0,0.0278,0.0278,0.0277,0.0247,0.0247,0.0246,0.0246,0.018,0.0179,0.0177,0,0,0,0,0,0,0,0,0,0,0,0,0,0.032,0.032,0.0319,0.0319,0.0318,0.0278,0.0278,0.0277,0.0247,0.0247,0.0246,0.0246,0.0181,0.0179,0.0177,0,0,0,0,0,0,0,0,0,0,0,0,0,0.0303,0.032,0.0319,0.0299,0.0296,0.0278,0.0278,0.0277,0.0247,0.0247,0.0246,0.0246,0.0181,0.0179,0.0177,0.0169,0,0,0.017,0.0169,0,0,0,0,0,0,0,0,0.0304,0.0303,0.0302,0.03,0.0297,0.0268,0.0254,0.024,0.0247,0.0265,0.0246,0.0246,0.0208,0.0203,0.0196,0.0166,0.0163,0.0169,0.0168,0.0167,0.0166,0,0,0,0,0,0,0,0.0305,0.0304,0.0302,0.0302,0.0299,0.0274,0.0272,0.0251,0.0238,0.0264,0.0261,0.0258,0.0206,0.0198,0.0194,0.0162,0.0169,0.0167,0.0166,0.0165,0.0133,0.0134,0,0,0,0,0,0,0.0314,0.0306,0.0304,0.0301,0.03,0.0274,0.0272,0.0277,0.0239,0.0233,0.0258,0.0256,0.0202,0.0197,0.0192,0.0207,0.0167,0.0165,0.0163,0.0133,0.0134,0.0134,0,0,0,0,0,0,0.0315,0.0315,0.0305,0.0302,0.0299,0.0275,0.0281,0.0277,0.0273,0.0235,0.0228,0.026,0.0202,0.0195,0.0181,0.0203,0.0164,0.0162,0.0132,0.0133,0.0134,0.0221,0,0,0,0,0,0,0.0315,0.0316,0.0323,0.0303,0.03,0.0306,0.0281,0.0276,0.0271,0.0269,0.0234,0.0227,0.0201,0.0185,0.0179,0.0199,0.016,0.0132,0.0133,0.0134,0.0217,0.0224,0.0231,0,0,0,0,0,0.0315,0.0333,0.0324,0.0324,0.0312,0.0307,0.0303,0.0284,0.0272,0.0278,0.0252,0.0229,0.0187,0.0184,0.0176,0.0197,0.0131,0.0132,0.0134,0.0214,0.0223,0.023,0,0,0,0,0,0,0.0334,0.0331,0.0321,0.0335,0.0326,0.0302,0.0304,0.0291,0.0275,0.0271,0.0235,0.0227,0.0222,0.0195,0.0192,0.0189,0.0156,0.0155,0.0219,0.0227,0.0234,0.027,0.0158,0,0,0,0,0,0.0343,0.0356,0.0343,0.0353,0.0351,0.0328,0.0324,0.0311,0.0294,0.0287,0.0262,0.0236,0.0221,0.0213,0.0189,0.019,0.0182,0.0197,0.0204,0.021,0.0234,0.0251,0.0262,0.0138,0.0138,0.0138,0,0,0.035,0.0351,0.0357,0.0358,0.0346,0.0361,0.0325,0.0324,0.0341,0.0281,0.0292,0.0256,0.0224,0.0224,0.022,0.0207,0.0235,0.0212,0.0217,0.0238,0.0254,0.0266,0.0277,0.0139,0.0139,0.0139,0,0,0.0379,0.0375,0.0398,0.0399,0.0391,0.0382,0.0387,0.0369,0.0367,0.0369,0.0331,0.0317,0.0287,0.0276,0.0266,0.0297,0.0267,0.0278,0.0349,0.0365,0.0376,0.0386,0.0373,0.0381,0.0287,0.0287,0.0287,0,0.0386,0.0421,0.0402,0.0425,0.0437,0.04,0.043,0.0425,0.0405,0.042,0.0385,0.0367,0.0322,0.0349,0.0346,0.0316,0.0309,0.0323,0.0377,0.0386,0.0395,0.038,0.0387,0.0291,0.0291,0.029,0.029,0,0.0437,0.0463,0.0476,0.05,0.0507,0.0525,0.0518,0.0526,0.0514,0.0511,0.0528,0.0475,0.0474,0.0445,0.0399,0.0438,0.0405,0.0382,0.0364,0.0413,0.0393,0.0399,0.0297,0.0296,0.0295,0.0294,0,0,0.0461,0.0505,0.0511,0.0547,0.0553,0.0572,0.0601,0.0632,0.068,0.0646,0.0712,0.0652,0.0626,0.0612,0.0557,0.0553,0.0575,0.0493,0.0491,0.0493,0.0595,0.0529,0.0529,0.0564,0.0566,0.0567,0.055,0,0.0508,0.0582,0.0586,0.0658,0.0699,0.069,0.0733,0.0753,0.0762,0.0811,0.0772,0.0801,0.0692,0.0699,0.0678,0.0614,0.06,0.0581,0.0536,0.0534,0.0482,0.0538,0.0513,0.0493,0.0556,0.0558,0.0558,0,0.0565,0.0611,0.0693,0.077,0.0787,0.0826,0.0906,0.0938,0.0983,0.0995,0.1009,0.098,0.0974,0.0876,0.081,0.0804,0.0706,0.0641,0.0639,0.056,0.0483,0.0455,0.0502,0.0376,0.0568,0.0567,0.0567,0,0.0618,0.0692,0.077,0.0792,0.0863,0.0912,0.095,0.1001,0.1068,0.1125,0.1189,0.1158,0.1183,0.1071,0.0912,0.0874,0.0835,0.077,0.0619,0.0611,0.0574,0.056,0.051,0.0728,0.0728,0.0728,0.0728,0,0.0683,0.0747,0.0809,0.0857,0.0965,0.0986,0.1104,0.114,0.1231,0.1349,0.1295,0.1392,0.1236,0.1186,0.1,0.0841,0.0907,0.0652,0.0619,0.0598,0.0587,0.046,0.036,0.0727,0.0727,0.0727,0.0728,0,0.0739,0.0775,0.0874,0.0963,0.0998,0.1078,0.1205,0.1303,0.1367,0.1528,0.1565,0.1596,0.1534,0.1342,0.1181,0.0981,0.0717,0.0728,0.0695,0.0658,0.0376,0.0281,0.017,0.0111,0.0572,0.057,0.0569,0,0.0778,0.0837,0.0949,0.1017,0.1066,0.1179,0.1275,0.1364,0.1486,0.1665,0.1773,0.1775,0.1795,0.152,0.1175,0.0859,0.0697,0.0616,0.0528,0.038,0.025,0.0185,0.014,0.0502,0.05,0.0499,0.0498,0,0.0857,0.0895,0.0975,0.1108,0.122,0.1353,0.1502,0.1621,0.1764,0.1909,0.2096,0.2128,0.1871,0.1567,0.1121,0.0883,0.0507,0.0575,0.0454,0.0223,0.0122,0.0043,0.0471,0.0485,0.0487,0.0488,0.0488,0.0489,0.0912,0.0982,0.1085,0.1212,0.1348,0.1534,0.1662,0.1843,0.2057,0.2276,0.23,0.2344,0.1908,0.1306,0.0991,0.041,0.0406,0.0219,0.0124,0.0081,-0.0001,0.0381,0.0334,0.0334,0.0334,0.0335,0.0335,0,0.0974,0.1058,0.1184,0.1352,0.1514,0.1573,0.1823,0.1972,0.2235,0.2378,0.25,0.228,0.1735,0.1191,0.0405,0.003,-0.0084,-0.0159,-0.0237,-0.0255,0.0123,0.0096,-0.0041,-0.0041,-0.0041,-0.0041,-0.0041,-0.004,0.1016,0.1134,0.1198,0.1459,0.1592,0.182,0.1969,0.2192,0.2338,0.2492,0.2475,0.2444,0.205,0.0708,-0.0155,-0.0349,-0.053,-0.0625,-0.0696,-0.0434,-0.0405,-0.0377,-0.042,-0.0664,-0.0665,-0.1012,-0.1016,-0.1019]}],[{"header":{"parameterUnit":"m.s-1","parameterCategory":2,"la1":30.2991,"la2":30.254,"lo1":-89.0895,"lo2":-89.0444,"dy":0.0017,"dx":0.0017,"nx":28,"ny":28,"refTime":"2024-08-18T21:00:00:Z","depth":"2","parameterNumber":2,"parameterNumberName":"U-component_of_CURRENTS"},"data":[0,0,0,0,0,0,0,0,0,0,0,0,0,0,0,0,0,0,0,0,0,0,0,0,0,0,0,0,0,0,0,0,0,0,0,0,0,0,0,0,0,0,0,0,0,0,0,0,0,0,0,0,0,0,0,0,0,0,0.2992,0.2993,0,0.3025,0.3025,0.3024,0.3023,0.3023,0.3024,0.3024,0.3058,0.3058,0.3059,0,0,0,0,0,0,0,0,0,0,0,0,0,0.2968,0.2967,0.2992,0.2993,0.2995,0.3025,0.3025,0.3024,0.3023,0.3023,0.3024,0.3025,0.3058,0.3058,0.3059,0,0,0,0,0,0,0,0,0,0,0,0,0,0.2977,0.2967,0.2992,0.3005,0.3008,0.3025,0.3025,0.3024,0.3023,0.3023,0.3024,0.3025,0.3057,0.3058,0.3059,0.3048,0,0,0.3061,0.3061,0,0,0,0,0,0,0,0,0.2977,0.2977,0.3002,0.3005,0.3007,0.303,0.3029,0.3036,0.3022,0.3006,0.3024,0.3025,0.3055,0.3056,0.3045,0.305,0.3051,0.3061,0.3061,0.3061,0.3062,0,0,0,0,0,0,0,0.2976,0.2976,0.2995,0.3004,0.3007,0.3025,0.3025,0.303,0.3018,0.3007,0.301,0.303,0.3055,0.3045,0.3046,0.3052,0.3061,0.3061,0.3062,0.3062,0.3154,0.3156,0,0,0,0,0,0,0.299,0.2975,0.2994,0.2997,0.3005,0.3025,0.3025,0.3013,0.3018,0.3022,0.3029,0.303,0.3043,0.3046,0.3048,0.3138,0.3061,0.3062,0.3062,0.3152,0.3154,0.3156,0,0,0,0,0,0,0.2988,0.2989,0.2993,0.2997,0.3,0.3025,0.3012,0.3014,0.3026,0.3036,0.3039,0.3044,0.3044,0.3047,0.3078,0.3136,0.3062,0.3063,0.3149,0.3152,0.3155,0.3253,0,0,0,0,0,0,0.2987,0.2988,0.2993,0.2997,0.3001,0.3014,0.3012,0.3014,0.3041,0.3042,0.3049,0.3052,0.3045,0.3077,0.3079,0.3135,0.3063,0.3147,0.3151,0.3154,0.3247,0.3259,0.3269,0,0,0,0,0,0.2985,0.2986,0.2992,0.2996,0.3002,0.3016,0.3018,0.3033,0.3042,0.3045,0.3062,0.3052,0.3103,0.3079,0.308,0.3138,0.3145,0.3149,0.3154,0.3242,0.3257,0.3269,0,0,0,0,0,0,0.2961,0.2987,0.2994,0.2997,0.3015,0.302,0.3034,0.3045,0.3057,0.3076,0.3067,0.307,0.313,0.3112,0.3085,0.3176,0.3127,0.3132,0.3194,0.3208,0.3218,0.3227,0.3064,0,0,0,0,0,0.2965,0.2976,0.2997,0.2999,0.3012,0.3025,0.3039,0.306,0.3074,0.308,0.3083,0.3105,0.3145,0.3157,0.3178,0.3211,0.3222,0.3253,0.3264,0.3274,0.3282,0.337,0.339,0.3171,0.3171,0.3171,0,0,0.2963,0.2973,0.2984,0.2998,0.3008,0.3043,0.3032,0.3068,0.3108,0.3084,0.3125,0.3145,0.3164,0.3218,0.3243,0.3211,0.3337,0.328,0.3288,0.3291,0.3377,0.3399,0.3418,0.3174,0.3174,0.3173,0,0,0.2966,0.2965,0.2988,0.301,0.3054,0.3069,0.3087,0.3111,0.3131,0.3181,0.3191,0.3239,0.3269,0.3299,0.332,0.3399,0.3401,0.3414,0.3469,0.3555,0.3574,0.3591,0.3614,0.3633,0.341,0.3411,0.3411,0,0.2981,0.2984,0.2996,0.3027,0.3059,0.3085,0.3128,0.3154,0.3189,0.3221,0.3213,0.3309,0.3315,0.3406,0.3435,0.3428,0.3457,0.3418,0.3571,0.3588,0.3604,0.3624,0.3643,0.3416,0.3415,0.3415,0.3414,0,0.2998,0.3019,0.303,0.3081,0.3115,0.3152,0.3205,0.3242,0.3279,0.3316,0.3411,0.3428,0.3485,0.3503,0.3494,0.3613,0.3591,0.3585,0.354,0.3633,0.3646,0.3665,0.3424,0.3422,0.342,0.3419,0,0,0.3001,0.3042,0.305,0.3082,0.3153,0.3182,0.3259,0.3332,0.34,0.345,0.353,0.3604,0.3623,0.3648,0.3653,0.3714,0.3836,0.3698,0.37,0.3723,0.4,0.3853,0.3857,0.3874,0.3878,0.3882,0.3959,0,0.3021,0.3071,0.3096,0.3167,0.3203,0.3261,0.3323,0.3408,0.3477,0.3555,0.3617,0.3703,0.3679,0.3726,0.3788,0.3844,0.3892,0.3813,0.3904,0.3906,0.3767,0.3877,0.3573,0.3606,0.3976,0.3979,0.3981,0,0.3034,0.3069,0.313,0.321,0.3233,0.3289,0.3407,0.3477,0.3602,0.3659,0.3762,0.3813,0.3923,0.388,0.4027,0.3988,0.3999,0.402,0.4024,0.3865,0.3793,0.3577,0.3624,0.4011,0.4008,0.4006,0.4004,0,0.3015,0.3092,0.3135,0.3166,0.3267,0.3318,0.3384,0.3514,0.3583,0.3743,0.3824,0.3951,0.4033,0.4105,0.4142,0.4117,0.4274,0.4242,0.4107,0.4094,0.3839,0.3796,0.4331,0.4331,0.4331,0.4331,0.4331,0,0.3011,0.3055,0.3131,0.3161,0.3235,0.3323,0.3427,0.3513,0.3648,0.3744,0.3882,0.3971,0.4106,0.4196,0.4203,0.4212,0.4331,0.4137,0.4125,0.3858,0.3819,0.4168,0.4149,0.4334,0.4333,0.4332,0.4332,0,0.2971,0.3022,0.3085,0.3189,0.3223,0.3286,0.342,0.3496,0.3651,0.3783,0.3844,0.4031,0.4157,0.4235,0.4346,0.4283,0.4306,0.4259,0.3902,0.3846,0.4046,0.4031,0.4144,0.4139,0.4136,0.4133,0.4131,0,0.2944,0.2971,0.3077,0.3128,0.3175,0.3274,0.3333,0.3471,0.3553,0.3795,0.3843,0.4029,0.4087,0.4192,0.415,0.4138,0.4228,0.3823,0.3711,0.406,0.4038,0.4028,0.4017,0.3405,0.3397,0.3391,0.3385,0,0.2908,0.295,0.2999,0.3072,0.3142,0.3186,0.3286,0.3348,0.3522,0.362,0.3746,0.3819,0.3943,0.3799,0.3797,0.3744,0.3808,0.3682,0.4197,0.3488,0.3368,0.3344,0.3358,0.3326,0.3332,0.3336,0.3339,0.3341,0.2875,0.2892,0.2947,0.3001,0.3078,0.308,0.3071,0.3163,0.3211,0.3325,0.3507,0.3506,0.3564,0.3395,0.3282,0.3206,0.3459,0.3301,0.3322,0.3349,0.3238,0.3117,0.3005,0.3008,0.3012,0.3015,0.3018,0,0.2818,0.2832,0.2877,0.2895,0.2903,0.2978,0.3014,0.2948,0.2931,0.3059,0.311,0.2879,0.2779,0.2836,0.2624,0.2603,0.2578,0.2495,0.2446,0.2508,0.2563,0.241,0.1958,0.1954,0.1951,0.1948,0,0,0.2791,0.2789,0.2782,0.2715,0.2744,0.2647,0.2648,0.2559,0.2572,0.2508,0.2491,0.2695,0.2775,0.2345,0.228,0.2083,0.2278,0.1998,0.2858,0.2866,0.2916,0.3045,0.2882,0,0,0,0,0]},{"header":{"parameterUnit":"m.s-1","parameterCategory":2,"la1":30.2991,"la2":30.254,"lo1":-89.0895,"lo2":-89.0444,"dy":0.0017,"dx":0.0017,"nx":28,"ny":28,"refTime":"2024-08-18T21:00:00:Z","depth":"2","parameterNumber":3,"parameterNumberName":"V-component_of_CURRENTS"},"data":[0,0,0,0,0,0,0,0,0,0,0,0,0,0,0,0,0,0,0,0,0,0,0,0,0,0,0,0,0,0,0,0,0,0,0,0,0,0,0,0,0,0,0,0,0,0,0,0,0,0,0,0,0,0,0,0,0,0,0.0182,0.0181,0,0.015,0.015,0.0149,0.0123,0.0123,0.0123,0.0122,0.0069,0.0068,0.0067,0,0,0,0,0,0,0,0,0,0,0,0,0,0.0179,0.0179,0.0182,0.0181,0.0181,0.015,0.015,0.0149,0.0123,0.0123,0.0123,0.0122,0.007,0.0068,0.0067,0,0,0,0,0,0,0,0,0,0,0,0,0,0.0166,0.0179,0.0182,0.0165,0.0163,0.0151,0.015,0.0149,0.0123,0.0123,0.0122,0.0122,0.007,0.0068,0.0067,0.006,0,0,0.0061,0.006,0,0,0,0,0,0,0,0,0.0167,0.0166,0.0168,0.0166,0.0164,0.0141,0.0129,0.0119,0.0123,0.0137,0.0122,0.0122,0.0092,0.0089,0.0082,0.0058,0.0056,0.0061,0.006,0.0059,0.0058,0,0,0,0,0,0,0,0.0168,0.0167,0.0168,0.0168,0.0165,0.0146,0.0144,0.0127,0.0115,0.0136,0.0134,0.0133,0.0091,0.0084,0.008,0.0055,0.0061,0.0059,0.0058,0.0057,0.0032,0.0033,0,0,0,0,0,0,0.0176,0.0168,0.0169,0.0167,0.0166,0.0146,0.0144,0.0148,0.0116,0.0111,0.0133,0.0132,0.0087,0.0083,0.0078,0.0091,0.0059,0.0057,0.0056,0.0032,0.0032,0.0033,0,0,0,0,0,0,0.0177,0.0177,0.017,0.0167,0.0165,0.0147,0.0151,0.0148,0.0145,0.0114,0.0109,0.0135,0.0087,0.0081,0.007,0.0088,0.0056,0.0054,0.0031,0.0032,0.0033,0.0102,0,0,0,0,0,0,0.0177,0.0177,0.0182,0.0168,0.0166,0.0173,0.0152,0.0147,0.0145,0.0143,0.0114,0.0109,0.0086,0.0073,0.0068,0.0085,0.0053,0.0031,0.0032,0.0032,0.0099,0.0105,0.011,0,0,0,0,0,0.0177,0.0192,0.0182,0.0182,0.0173,0.0174,0.0171,0.0155,0.0145,0.015,0.0129,0.011,0.0075,0.0072,0.0066,0.0082,0.003,0.0031,0.0032,0.0096,0.0103,0.0109,0,0,0,0,0,0,0.0191,0.0191,0.018,0.0193,0.0186,0.017,0.0172,0.0162,0.0149,0.0145,0.0115,0.0108,0.0103,0.0082,0.008,0.0077,0.005,0.005,0.0101,0.0107,0.0112,0.0137,0.0051,0,0,0,0,0,0.0197,0.0209,0.0199,0.0208,0.0207,0.019,0.0187,0.0177,0.0164,0.0158,0.0139,0.0117,0.0102,0.0097,0.0077,0.0078,0.0056,0.0083,0.0089,0.0094,0.011,0.0099,0.0105,0.0036,0.0036,0.0036,0,0,0.0204,0.0205,0.021,0.0212,0.0203,0.0217,0.0188,0.019,0.0205,0.0155,0.0165,0.0133,0.0105,0.0104,0.0101,0.0091,0.0098,0.0095,0.01,0.0113,0.0101,0.0107,0.0113,0.0037,0.0037,0.0037,0,0,0.0231,0.0225,0.0246,0.0247,0.0244,0.0237,0.0242,0.023,0.0228,0.0228,0.0197,0.018,0.0157,0.0144,0.0134,0.0158,0.0123,0.0148,0.0202,0.0191,0.0197,0.0202,0.0168,0.0169,0.0155,0.0156,0.0156,0,0.0238,0.0266,0.0251,0.0272,0.0284,0.0252,0.0282,0.0276,0.0262,0.0269,0.0241,0.0214,0.018,0.0193,0.0195,0.0172,0.0152,0.0181,0.02,0.0204,0.0208,0.0172,0.0173,0.0159,0.0159,0.0158,0.0158,0,0.0285,0.0305,0.0319,0.034,0.0348,0.0366,0.0361,0.0366,0.0353,0.0345,0.0345,0.0297,0.0288,0.0266,0.0235,0.0252,0.0222,0.0205,0.0187,0.022,0.0178,0.0178,0.0164,0.0163,0.0162,0.0161,0,0,0.0309,0.0347,0.0351,0.0382,0.0389,0.0408,0.0432,0.0453,0.0487,0.0447,0.0484,0.0433,0.0403,0.039,0.0347,0.0328,0.0319,0.0283,0.0281,0.0257,0.0281,0.0232,0.0226,0.0308,0.0308,0.0309,0.0235,0,0.0352,0.0417,0.0421,0.0484,0.0521,0.0511,0.0546,0.0557,0.0556,0.0578,0.0524,0.0536,0.0454,0.0457,0.0422,0.0359,0.0324,0.0339,0.0247,0.0244,0.0203,0.0226,0.0247,0.0181,0.0234,0.0234,0.0234,0,0.0402,0.0444,0.0518,0.0581,0.0597,0.0631,0.0692,0.0719,0.0731,0.0729,0.0715,0.0676,0.0648,0.0571,0.0474,0.049,0.0391,0.0323,0.0318,0.0253,0.0195,0.016,0.0178,0.0233,0.0233,0.0233,0.0233,0,0.0449,0.0514,0.0584,0.0603,0.0664,0.0704,0.0738,0.0769,0.082,0.0836,0.0874,0.0811,0.0808,0.0687,0.0529,0.0514,0.0406,0.0371,0.0224,0.0218,0.0208,0.0201,0.0291,0.0291,0.0291,0.0291,0.0292,0,0.0504,0.056,0.0618,0.066,0.0757,0.0773,0.0875,0.0896,0.0951,0.1038,0.0964,0.101,0.084,0.0753,0.0582,0.0405,0.0445,0.024,0.0205,0.0229,0.0225,0.0251,0.0248,0.0288,0.0289,0.029,0.029,0,0.055,0.0584,0.0674,0.0752,0.0786,0.0859,0.0972,0.1052,0.1087,0.1201,0.1219,0.1174,0.1067,0.0862,0.0668,0.0494,0.0316,0.0229,0.0252,0.0221,0.0117,0.0117,0.0082,0.008,0.0078,0.0076,0.0075,0,0.0581,0.0632,0.0742,0.0812,0.0856,0.0964,0.1052,0.1116,0.1213,0.131,0.1378,0.1308,0.1263,0.0937,0.0638,0.0334,0.0287,0.0135,0.0106,0.0131,0.01,0.0103,0.0107,0.011,0.0109,0.0109,0.0108,0,0.0644,0.0682,0.0759,0.0896,0.1004,0.1128,0.1258,0.1352,0.1453,0.1531,0.1614,0.1581,0.1299,0.1,0.0577,0.0365,0.0188,0.0109,0.0154,0.0158,0.0151,0.0123,0.0126,0.0102,0.0102,0.0103,0.0103,0.0103,0.0692,0.0757,0.0861,0.0992,0.1125,0.1287,0.1399,0.1529,0.167,0.1794,0.1764,0.1706,0.1391,0.0847,0.0499,0.0135,0.0154,0.0008,0.0014,0.0019,0.0033,0.0024,-0.0048,-0.0048,-0.0049,-0.0049,-0.0049,0,0.0751,0.083,0.0952,0.1116,0.1269,0.1331,0.1538,0.1633,0.1792,0.1875,0.1907,0.1582,0.1246,0.0877,0.035,0.0028,0.0013,-0.0093,-0.003,-0.0022,-0.0015,0.0,-0.0092,-0.0093,-0.0094,-0.0095,0,0,0.0792,0.0911,0.0972,0.1212,0.1338,0.1533,0.1658,0.1776,0.1863,0.1906,0.1869,0.1793,0.1355,0.0962,0.053,0.0227,0.0173,0.0153,0.022,0.0354,0.0365,0.0071,0.0107,0,0,0,0,0]}],[{"header":{"parameterUnit":"m.s-1","parameterCategory":2,"la1":30.2991,"la2":30.254,"lo1":-89.0895,"lo2":-89.0444,"dy":0.0017,"dx":0.0017,"nx":28,"ny":28,"refTime":"2024-08-18T21:00:00:Z","depth":"4","parameterNumber":2,"parameterNumberName":"U-component_of_CURRENTS"},"data":[0,0,0,0,0,0,0,0,0,0,0,0,0,0,0,0,0,0,0,0,0,0,0,0,0,0,0,0,0,0,0,0,0,0,0,0,0,0,0,0,0,0,0,0,0,0,0,0,0,0,0,0,0,0,0,0,0,0,0.1713,0.1714,0,0.1799,0.18,0.1801,0.187,0.1871,0.1872,0.1872,0.1932,0.1933,0.1934,0,0,0,0,0,0,0,0,0,0,0,0,0,0.1635,0.1636,0.1713,0.1714,0.1715,0.1799,0.18,0.1801,0.187,0.1871,0.1872,0.1872,0.1932,0.1933,0.1934,0,0,0,0,0,0,0,0,0,0,0,0,0,0.1691,0.1636,0.1712,0.1758,0.1763,0.1799,0.18,0.1802,0.187,0.1871,0.1872,0.1873,0.1931,0.1933,0.1934,0.1927,0,0,0.1939,0.194,0,0,0,0,0,0,0,0,0.1688,0.1694,0.175,0.1755,0.176,0.1824,0.1795,0.1842,0.187,0.1831,0.1872,0.1873,0.1892,0.1897,0.1913,0.193,0.1932,0.1939,0.194,0.1941,0.1941,0,0,0,0,0,0,0,0.1684,0.1691,0.1748,0.1751,0.1757,0.1784,0.1792,0.1804,0.1856,0.1834,0.1839,0.1846,0.1895,0.1912,0.1915,0.1933,0.1939,0.1941,0.1942,0.1942,0.2027,0.2029,0,0,0,0,0,0,0.1668,0.1687,0.1745,0.1751,0.1724,0.1784,0.1794,0.1804,0.1857,0.1865,0.1846,0.1849,0.1908,0.1913,0.1917,0.2003,0.1941,0.1942,0.1943,0.2026,0.2028,0.2029,0,0,0,0,0,0,0.1666,0.1672,0.1742,0.172,0.173,0.1784,0.1795,0.1805,0.1858,0.1865,0.1874,0.1892,0.1909,0.1915,0.1958,0.2002,0.1943,0.1945,0.2025,0.2027,0.2028,0.2115,0,0,0,0,0,0,0.1663,0.1671,0.1691,0.1718,0.1731,0.1777,0.1794,0.1806,0.1858,0.1865,0.1907,0.1912,0.191,0.1956,0.196,0.2003,0.1946,0.2023,0.2025,0.2028,0.211,0.2119,0.2127,0,0,0,0,0,0.166,0.1676,0.1691,0.17,0.175,0.1777,0.1787,0.1829,0.186,0.1882,0.1917,0.1912,0.1974,0.1958,0.1962,0.2007,0.2022,0.2025,0.2028,0.2106,0.2118,0.2127,0,0,0,0,0,0,0.1661,0.1685,0.1703,0.1729,0.1758,0.1789,0.1822,0.1849,0.1897,0.1918,0.1929,0.1936,0.1991,0.1982,0.1964,0.2037,0.1997,0.2001,0.2055,0.2066,0.2074,0.2079,0.1947,0,0,0,0,0,0.1666,0.1685,0.171,0.1737,0.1755,0.1797,0.1823,0.185,0.1886,0.1912,0.194,0.1971,0.2,0.202,0.2037,0.2076,0.2082,0.2106,0.2114,0.2122,0.2127,0.219,0.2206,0.2039,0.2039,0.2039,0,0,0.1677,0.1692,0.1707,0.1739,0.1773,0.1803,0.1817,0.1865,0.1904,0.1907,0.1982,0.2004,0.2017,0.2066,0.2089,0.2068,0.217,0.2125,0.2132,0.2134,0.2195,0.2212,0.2227,0.2041,0.204,0.204,0,0,0.1692,0.1722,0.174,0.1766,0.1811,0.1833,0.1853,0.1902,0.1944,0.2003,0.2022,0.2071,0.2112,0.2135,0.215,0.2212,0.2214,0.2221,0.2272,0.2334,0.2349,0.2362,0.2384,0.2398,0.2225,0.2225,0.2225,0,0.1705,0.173,0.1752,0.1777,0.1807,0.185,0.1883,0.1927,0.1987,0.2025,0.2036,0.2132,0.2147,0.2211,0.2238,0.2235,0.2259,0.2236,0.2348,0.2361,0.2372,0.2392,0.2407,0.223,0.2229,0.2229,0.2228,0,0.1726,0.1759,0.1777,0.182,0.1854,0.1892,0.1942,0.1993,0.2051,0.2093,0.2184,0.2215,0.2273,0.2287,0.2288,0.2379,0.2364,0.2354,0.2326,0.2395,0.241,0.2424,0.2236,0.2234,0.2233,0.2232,0,0,0.1712,0.1777,0.1787,0.1814,0.1883,0.1906,0.1982,0.2051,0.2116,0.2185,0.2268,0.2334,0.2371,0.2389,0.2404,0.2455,0.2559,0.245,0.2452,0.2478,0.2685,0.2508,0.2506,0.2585,0.2588,0.259,0.2659,0,0.1724,0.1772,0.1807,0.1866,0.1894,0.1957,0.2023,0.2096,0.2172,0.226,0.2322,0.2408,0.2405,0.2456,0.251,0.2558,0.2602,0.254,0.2607,0.2608,0.2449,0.2518,0.26,0.2669,0.2672,0.2674,0.2676,0,0.1721,0.1758,0.1817,0.1888,0.1911,0.1963,0.2074,0.2139,0.2264,0.2333,0.243,0.2484,0.2588,0.2569,0.2692,0.2662,0.2683,0.2701,0.2704,0.2518,0.2457,0.2586,0.2701,0.2699,0.2697,0.2695,0.2694,0,0.168,0.1753,0.1804,0.1832,0.1928,0.1984,0.2049,0.2172,0.2241,0.2397,0.247,0.2588,0.2678,0.2734,0.2785,0.2764,0.2893,0.2864,0.2712,0.2699,0.2799,0.2785,0.2936,0.2936,0.2936,0.2935,0.2935,0,0.1652,0.169,0.1797,0.1826,0.1892,0.198,0.208,0.2161,0.2303,0.2388,0.2517,0.2597,0.2734,0.2814,0.2827,0.2813,0.2936,0.2729,0.2713,0.283,0.2819,0.2808,0.2793,0.2938,0.2937,0.2937,0.2936,0,0.1577,0.1658,0.1707,0.1828,0.1871,0.1922,0.2071,0.2134,0.2299,0.2416,0.2475,0.2652,0.2765,0.2842,0.2946,0.286,0.2862,0.2817,0.2933,0.2922,0.261,0.2599,0.2654,0.2649,0.2644,0.264,0.2637,0,0.1535,0.1564,0.1684,0.172,0.1779,0.1881,0.1943,0.211,0.2181,0.2419,0.2451,0.2633,0.2726,0.2732,0.2825,0.2831,0.2791,0.2759,0.2679,0.2606,0.2587,0.2582,0.2577,0.2629,0.2628,0.2627,0.2626,0,0.1442,0.1504,0.154,0.1624,0.1694,0.1759,0.1871,0.1912,0.2111,0.2278,0.2388,0.2452,0.2568,0.2638,0.2664,0.2657,0.2765,0.271,0.2718,0.2643,0.2577,0.2561,0.2562,0.261,0.2612,0.2614,0.2614,0,0.1364,0.1362,0.1435,0.1488,0.1571,0.1614,0.1691,0.1789,0.1888,0.2152,0.2187,0.2379,0.2557,0.2547,0.2569,0.2557,0.2509,0.2404,0.2428,0.2447,0.2343,0.2227,0.2149,0,0,0,0,0,0.1287,0.1276,0.13,0.1354,0.1431,0.1502,0.1625,0.1716,0.1917,0.1938,0.2063,0.216,0.2237,0.2333,0.2277,0.2447,0.2495,0.2366,0.2381,0.2521,0.2539,0.2434,0,0,0,0,0,0,0.1236,0.1249,0.1245,0.1232,0.1268,0.1347,0.1432,0.1566,0.1595,0.1812,0.187,0.203,0.2136,0.2265,0.2246,0.2267,0.2227,0.2483,0.2476,0.251,0.2527,0.2542,0.2441,0,0,0,0,0]},{"header":{"parameterUnit":"m.s-1","parameterCategory":2,"la1":30.2991,"la2":30.254,"lo1":-89.0895,"lo2":-89.0444,"dy":0.0017,"dx":0.0017,"nx":28,"ny":28,"refTime":"2024-08-18T21:00:00:Z","depth":"4","parameterNumber":3,"parameterNumberName":"V-component_of_CURRENTS"},"data":[0,0,0,0,0,0,0,0,0,0,0,0,0,0,0,0,0,0,0,0,0,0,0,0,0,0,0,0,0,0,0,0,0,0,0,0,0,0,0,0,0,0,0,0,0,0,0,0,0,0,0,0,0,0,0,0,0,0,0.0134,0.0133,0,0.0115,0.0115,0.0115,0.01,0.01,0.01,0.01,0.0069,0.0068,0.0068,0,0,0,0,0,0,0,0,0,0,0,0,0,0.0128,0.0128,0.0134,0.0133,0.0133,0.0115,0.0115,0.0115,0.01,0.01,0.01,0.01,0.0069,0.0068,0.0068,0,0,0,0,0,0,0,0,0,0,0,0,0,0.0122,0.0128,0.0134,0.0124,0.0123,0.0115,0.0115,0.0115,0.01,0.01,0.01,0.01,0.007,0.0069,0.0067,0.0065,0,0,0.0064,0.0064,0,0,0,0,0,0,0,0,0.0122,0.0122,0.0126,0.0125,0.0123,0.011,0.0102,0.0097,0.01,0.0109,0.01,0.01,0.0082,0.008,0.0077,0.0063,0.0062,0.0064,0.0064,0.0063,0.0063,0,0,0,0,0,0,0,0.0123,0.0123,0.0126,0.0125,0.0124,0.0111,0.011,0.0101,0.0096,0.0108,0.0107,0.0105,0.0081,0.0078,0.0076,0.0061,0.0064,0.0063,0.0063,0.0062,0.0053,0.0054,0,0,0,0,0,0,0.0127,0.0123,0.0127,0.0126,0.0123,0.0111,0.011,0.0114,0.0096,0.0094,0.0105,0.0105,0.008,0.0077,0.0075,0.0085,0.0063,0.0062,0.0061,0.0053,0.0054,0.0054,0,0,0,0,0,0,0.0127,0.0128,0.0127,0.0124,0.0123,0.0112,0.0116,0.0114,0.0115,0.0095,0.0092,0.0109,0.0079,0.0076,0.0075,0.0083,0.0062,0.0061,0.0053,0.0053,0.0054,0.0097,0,0,0,0,0,0,0.0127,0.0128,0.0133,0.0124,0.0123,0.0132,0.0116,0.0114,0.0114,0.0113,0.0097,0.0094,0.0079,0.0077,0.0074,0.0081,0.006,0.0052,0.0053,0.0054,0.0095,0.0099,0.0102,0,0,0,0,0,0.0127,0.0139,0.0133,0.0133,0.013,0.0132,0.0131,0.0122,0.0115,0.0121,0.011,0.0094,0.0079,0.0076,0.0073,0.008,0.0052,0.0053,0.0053,0.0093,0.0098,0.0102,0,0,0,0,0,0,0.0138,0.0139,0.0132,0.0143,0.014,0.013,0.0133,0.0127,0.0123,0.012,0.0101,0.0098,0.0099,0.0084,0.0082,0.008,0.0062,0.0062,0.0094,0.0098,0.0101,0.0114,0.0059,0,0,0,0,0,0.0142,0.0153,0.0147,0.0155,0.0155,0.0145,0.0144,0.0138,0.0132,0.013,0.0119,0.0107,0.0099,0.0095,0.0085,0.0086,0.0056,0.0088,0.0091,0.0095,0.0102,0.0062,0.0062,0.0057,0.0057,0.0057,0,0,0.0147,0.015,0.0154,0.0158,0.0153,0.0165,0.0144,0.0148,0.0159,0.0127,0.0139,0.012,0.0102,0.0103,0.0102,0.0093,0.0079,0.0096,0.0099,0.0105,0.0063,0.0063,0.0063,0.0058,0.0057,0.0057,0,0,0.0168,0.0166,0.0182,0.0185,0.0184,0.018,0.0185,0.0179,0.0178,0.0184,0.0163,0.0151,0.0143,0.013,0.0123,0.014,0.01,0.0135,0.0164,0.0125,0.0125,0.0125,0.0082,0.0077,0.0137,0.0137,0.0137,0,0.0173,0.0195,0.0186,0.0202,0.0212,0.0192,0.0214,0.0211,0.0206,0.0207,0.0195,0.0172,0.0156,0.0154,0.0161,0.0149,0.0117,0.015,0.0129,0.0129,0.0127,0.0083,0.0078,0.0139,0.0139,0.0139,0.0139,0,0.0206,0.0223,0.0234,0.0251,0.0259,0.0274,0.0271,0.0276,0.0269,0.0261,0.0255,0.0225,0.0213,0.0202,0.019,0.0177,0.0153,0.0138,0.0118,0.0131,0.0083,0.0077,0.0143,0.0142,0.0141,0.0141,0,0,0.022,0.0252,0.0256,0.0279,0.0288,0.0303,0.032,0.0332,0.0348,0.0322,0.0331,0.0306,0.0279,0.0269,0.024,0.0206,0.0168,0.0174,0.0171,0.0132,0.0074,0.0071,0.0063,0.0145,0.0145,0.0144,0.0042,0,0.025,0.0299,0.0304,0.0353,0.038,0.0374,0.0399,0.0403,0.0396,0.0398,0.035,0.0349,0.0307,0.0304,0.026,0.0198,0.0154,0.0197,0.0068,0.0065,0.0061,0.0057,0.0142,0.0037,0.0035,0.0034,0.0033,0,0.0282,0.0315,0.0371,0.0419,0.043,0.0458,0.0494,0.0512,0.05,0.0492,0.0461,0.0422,0.0377,0.0338,0.0221,0.0249,0.0169,0.0108,0.0102,0.0083,0.005,0.0023,0.0021,0.0022,0.0023,0.0023,0.0024,0,0.031,0.0362,0.0415,0.0431,0.0478,0.0508,0.0535,0.0544,0.0573,0.0554,0.0557,0.0483,0.0459,0.0346,0.0219,0.022,0.0076,0.006,-0.0025,-0.0027,-0.0013,-0.0012,-0.0031,-0.003,-0.003,-0.003,-0.003,0,0.0343,0.0386,0.0439,0.047,0.0545,0.0558,0.0628,0.0636,0.0654,0.0688,0.0614,0.0608,0.046,0.0359,0.0231,0.0083,0.008,-0.002,-0.0051,0.0007,0.0011,-0.0019,-0.0016,-0.0034,-0.0033,-0.0032,-0.0032,0,0.0365,0.0398,0.0466,0.0532,0.0564,0.0619,0.0706,0.0749,0.0754,0.0791,0.079,0.0704,0.0577,0.0409,0.0226,0.0115,-0.0035,-0.0092,-0.0021,-0.0047,-0.0117,-0.0111,-0.0189,-0.0189,-0.019,-0.0191,-0.0191,0,0.0381,0.0419,0.0515,0.0568,0.0607,0.0695,0.0759,0.0802,0.0847,0.0849,0.0863,0.076,0.0679,0.0416,0.0232,-0.0022,-0.0058,-0.0147,-0.0127,-0.0109,-0.0133,-0.0125,-0.0118,-0.0193,-0.0193,-0.0193,-0.0193,0,0.0411,0.0447,0.0505,0.0614,0.0699,0.0794,0.0882,0.0921,0.0963,0.0967,0.0933,0.0797,0.0648,0.0435,0.0233,0.0049,-0.0093,-0.0155,-0.0155,-0.0137,-0.0115,-0.0136,-0.0128,-0.0196,-0.0196,-0.0195,-0.0195,0,0.0433,0.048,0.0559,0.0657,0.0763,0.0858,0.0906,0.0962,0.101,0.1006,0.0992,0.0828,0.074,0.0471,0.0283,0.0103,0.0061,-0.0002,-0.001,-0.001,0.0071,0.0127,0.0095,0,0,0,0,0,0.0452,0.0509,0.0595,0.0704,0.0805,0.0876,0.0973,0.1007,0.1045,0.1037,0.1021,0.0884,0.0622,0.0505,0.0328,0.0251,0.0013,0.0035,-0.0068,-0.0211,-0.0208,-0.0144,0,0,0,0,0,0,0.0471,0.0548,0.0594,0.0725,0.0804,0.0926,0.0995,0.1022,0.1017,0.1021,0.0889,0.0834,0.0579,0.0729,0.0324,0.0269,0.0176,-0.0083,-0.0087,-0.0213,-0.021,-0.0207,-0.0141,0,0,0,0,0]}]]